THY5JT LTFM-LTBJ

Flight info

Callsign THY5JT
Flight time N/A
Altitude 27000
Route IVGUS M19 OVZOK
Aircraft A332/H-SDE3GHIJ2J3J5M1RVWXY/LB2D1

Departure

Time 2026-02-17 15:50
Airport İstanbul Airport (LTFM)

Arrival

Time N/A
Airport Adnan Menderes International Airport (LTBJ)
Time Latitude Longitude Altitude Speed Heading
2026-02-17 15:30 41.26811 28.75037 342 ft 0 kts 269°
2026-02-17 15:40 41.26810 28.75037 342 ft 0 kts 269°
2026-02-17 15:41 41.26811 28.75037 342 ft 0 kts 269°
2026-02-17 15:41 41.26811 28.75040 342 ft 1 kts 274°
2026-02-17 15:41 41.26811 28.75058 353 ft 3 kts 267°
2026-02-17 15:42 41.26811 28.75082 345 ft 3 kts 269°
2026-02-17 15:42 41.26811 28.75107 351 ft 2 kts 270°
2026-02-17 15:42 41.26811 28.75118 351 ft 1 kts 342°
2026-02-17 15:43 41.26797 28.75135 353 ft 1 kts 324°
2026-02-17 15:43 41.26789 28.75141 353 ft 2 kts 348°
2026-02-17 15:43 41.26784 28.75142 353 ft 0 kts 351°
2026-02-17 15:44 41.26803 28.75140 350 ft 4 kts 356°
2026-02-17 15:45 41.26843 28.75147 345 ft 7 kts
2026-02-17 15:45 41.26915 28.75156 351 ft 14 kts
2026-02-17 15:45 41.27004 28.75239 351 ft 19 kts 39°
2026-02-17 15:45 41.27118 28.75356 349 ft 22 kts 22°
2026-02-17 15:46 41.27272 28.75366 350 ft 23 kts 359°
2026-02-17 15:46 41.27380 28.75365 347 ft 24 kts 359°
2026-02-17 15:46 41.27613 28.75359 348 ft 25 kts 359°
2026-02-17 15:47 41.27913 28.75352 342 ft 27 kts 359°
2026-02-17 15:47 41.28106 28.75347 350 ft 28 kts 359°
2026-02-17 15:47 41.28304 28.75343 351 ft 29 kts 359°
2026-02-17 15:47 41.28543 28.75337 350 ft 24 kts 359°
2026-02-17 15:48 41.28657 28.75335 343 ft 25 kts 359°
2026-02-17 15:48 41.28832 28.75331 352 ft 26 kts 359°
2026-02-17 15:48 41.28980 28.75370 348 ft 19 kts 57°
2026-02-17 15:48 41.28992 28.75464 347 ft 0 kts 86°
2026-02-17 15:49 41.28993 28.75482 342 ft 4 kts 86°
2026-02-17 15:49 41.28992 28.75557 344 ft 11 kts 103°
2026-02-17 15:49 41.28926 28.75619 344 ft 14 kts 176°
2026-02-17 15:49 41.28741 28.75624 350 ft 64 kts 179°
2026-02-17 15:50 41.27974 28.75643 351 ft 152 kts 179°
2026-02-17 15:50 41.26761 28.75653 524 ft 192 kts 179°
2026-02-17 15:50 41.24121 28.75716 2394 ft 188 kts 168°
2026-02-17 15:51 41.22863 28.76624 2623 ft 231 kts 138°
2026-02-17 15:51 41.21750 28.78229 3425 ft 234 kts 140°
2026-02-17 15:51 41.20577 28.79698 4390 ft 234 kts 146°
2026-02-17 15:51 41.19292 28.81056 5299 ft 235 kts 149°
2026-02-17 15:52 41.17957 28.82322 6201 ft 237 kts 153°
2026-02-17 15:52 41.16378 28.83009 6757 ft 244 kts 183°
2026-02-17 15:52 41.14701 28.82720 7688 ft 244 kts 191°
2026-02-17 15:52 41.13015 28.82356 8460 ft 250 kts 188°
2026-02-17 15:53 41.11256 28.82082 9371 ft 253 kts 186°
2026-02-17 15:53 41.09508 28.81883 10098 ft 257 kts 185°
2026-02-17 15:53 41.07677 28.81715 10554 ft 274 kts 185°
2026-02-17 15:53 41.05761 28.81566 11321 ft 275 kts 184°
2026-02-17 15:54 41.03839 28.81430 12101 ft 280 kts 184°
2026-02-17 15:54 41.01877 28.81299 12868 ft 283 kts 184°
2026-02-17 15:54 40.97899 28.81042 14288 ft 289 kts 184°
2026-02-17 15:55 40.95888 28.80903 14973 ft 291 kts 187°
2026-02-17 15:55 40.93964 28.80075 15640 ft 294 kts 212°
2026-02-17 15:55 40.92473 28.78193 16319 ft 303 kts 234°
2026-02-17 15:55 40.91688 28.75562 16986 ft 317 kts 257°
2026-02-17 15:56 40.91500 28.72629 17683 ft 321 kts 257°
2026-02-17 15:56 40.90987 28.69783 18324 ft 315 kts 244°
2026-02-17 15:56 40.90361 28.67028 18912 ft 324 kts 258°
2026-02-17 15:56 40.90215 28.63996 19581 ft 328 kts 261°
2026-02-17 15:57 40.90061 28.60980 20204 ft 329 kts 258°
2026-02-17 15:57 40.89791 28.57985 20851 ft 329 kts 256°
2026-02-17 15:57 40.89459 28.55028 21464 ft 330 kts 255°
2026-02-17 15:57 40.89099 28.52016 22104 ft 332 kts 255°
2026-02-17 15:58 40.88737 28.48995 22744 ft 334 kts 255°
2026-02-17 15:58 40.88374 28.45956 23322 ft 337 kts 255°
2026-02-17 15:58 40.87641 28.39808 24418 ft 340 kts 255°
2026-02-17 15:59 40.87271 28.36711 24951 ft 342 kts 255°
2026-02-17 15:59 40.86897 28.33595 25478 ft 344 kts 255°
2026-02-17 15:59 40.86518 28.30474 26011 ft 346 kts 255°
2026-02-17 15:59 40.86132 28.27328 26361 ft 347 kts 255°
2026-02-17 16:00 40.85751 28.24191 26445 ft 345 kts 255°
2026-02-17 16:00 40.85373 28.21064 26466 ft 344 kts 255°
2026-02-17 16:00 40.84995 28.17950 26470 ft 344 kts 255°
2026-02-17 16:00 40.84614 28.14819 26468 ft 345 kts 255°
2026-02-17 16:01 40.84229 28.11673 26468 ft 347 kts 255°
2026-02-17 16:01 40.83845 28.08547 26470 ft 357 kts 255°
2026-02-17 16:01 40.83434 28.05234 26464 ft 373 kts 255°
2026-02-17 16:01 40.83007 28.01778 26465 ft 389 kts 255°
2026-02-17 16:02 40.82564 27.98185 26463 ft 404 kts 255°
2026-02-17 16:02 40.82106 27.94467 26460 ft 418 kts 255°
2026-02-17 16:02 40.81141 27.86665 26453 ft 438 kts 255°
2026-02-17 16:03 40.80645 27.82671 26448 ft 441 kts 255°
2026-02-17 16:03 40.80148 27.78677 26445 ft 441 kts 255°
2026-02-17 16:03 40.79647 27.74671 26445 ft 439 kts 255°
2026-02-17 16:03 40.78983 27.70840 26440 ft 429 kts 244°
2026-02-17 16:04 40.77549 27.67451 26438 ft 419 kts 227°
2026-02-17 16:04 40.75430 27.64878 26438 ft 413 kts 211°
2026-02-17 16:04 40.72824 27.63335 26437 ft 412 kts 194°
2026-02-17 16:04 40.69970 27.62963 26436 ft 417 kts 178°
2026-02-17 16:05 40.67085 27.63545 26426 ft 418 kts 176°
2026-02-17 16:05 40.64207 27.63424 26438 ft 415 kts 193°
2026-02-17 16:05 40.61507 27.62126 26445 ft 416 kts 210°
2026-02-17 16:05 40.59132 27.59920 26435 ft 418 kts 216°
2026-02-17 16:06 40.56766 27.57699 26433 ft 417 kts 211°
2026-02-17 16:06 40.54154 27.56098 26431 ft 416 kts 195°
2026-02-17 16:06 40.48405 27.56402 26430 ft 427 kts 163°
2026-02-17 16:07 40.45769 27.58169 26432 ft 432 kts 156°
2026-02-17 16:07 40.43015 27.59613 26429 ft 423 kts 171°
2026-02-17 16:07 40.40111 27.60139 26439 ft 419 kts 180°
2026-02-17 16:07 40.37198 27.60316 26441 ft 419 kts 180°
2026-02-17 16:08 40.34292 27.60536 26442 ft 419 kts 180°
2026-02-17 16:08 40.28584 27.59356 26440 ft 416 kts 194°
2026-02-17 16:08 40.25752 27.58610 26447 ft 416 kts 191°
2026-02-17 16:09 40.22889 27.58034 26443 ft 416 kts 189°
2026-02-17 16:09 40.20019 27.57520 26437 ft 416 kts 189°
2026-02-17 16:09 40.17153 27.56995 26438 ft 416 kts 190°
2026-02-17 16:09 40.14281 27.56448 26450 ft 417 kts 190°
2026-02-17 16:10 40.11418 27.55892 26439 ft 417 kts 190°
2026-02-17 16:10 40.08543 27.55336 26449 ft 416 kts 190°
2026-02-17 16:10 40.02857 27.54249 26444 ft 411 kts 190°
2026-02-17 16:11 40.00035 27.53710 26460 ft 410 kts 190°
2026-02-17 16:11 39.97218 27.53171 26458 ft 410 kts 190°
2026-02-17 16:11 39.94386 27.52631 26449 ft 410 kts 190°
2026-02-17 16:11 39.91560 27.52092 26464 ft 410 kts 190°
2026-02-17 16:12 39.88736 27.51553 26457 ft 410 kts 190°
2026-02-17 16:12 39.85957 27.51025 26464 ft 409 kts 190°
2026-02-17 16:12 39.83141 27.50489 26462 ft 409 kts 190°
2026-02-17 16:12 39.80329 27.49954 26465 ft 409 kts 190°
2026-02-17 16:13 39.77515 27.49420 25979 ft 406 kts 190°
2026-02-17 16:13 39.74723 27.48890 25233 ft 406 kts 190°
2026-02-17 16:13 39.71928 27.48360 24491 ft 405 kts 190°
2026-02-17 16:13 39.69135 27.47832 23769 ft 405 kts 190°
2026-02-17 16:14 39.66336 27.47308 23057 ft 405 kts 190°
2026-02-17 16:14 39.63598 27.46797 22221 ft 391 kts 190°
2026-02-17 16:14 39.58293 27.45801 20620 ft 379 kts 190°
2026-02-17 16:15 39.55705 27.45315 19920 ft 370 kts 190°
2026-02-17 16:15 39.53243 27.44855 19353 ft 354 kts 191°
2026-02-17 16:15 39.50852 27.44409 18803 ft 339 kts 191°
2026-02-17 16:15 39.48564 27.43981 18328 ft 325 kts 191°
2026-02-17 16:16 39.46363 27.43569 17730 ft 316 kts 191°
2026-02-17 16:16 39.44192 27.43161 16817 ft 314 kts 191°
2026-02-17 16:16 39.42036 27.42757 16051 ft 310 kts 191°
2026-02-17 16:16 39.39908 27.42359 15300 ft 306 kts 192°
2026-02-17 16:17 39.37809 27.41967 14665 ft 306 kts 192°
2026-02-17 16:17 39.35731 27.41430 14302 ft 300 kts 199°
2026-02-17 16:17 39.33797 27.40651 14065 ft 282 kts 200°
2026-02-17 16:17 39.31976 27.39909 13837 ft 266 kts 200°
2026-02-17 16:18 39.30238 27.39227 13621 ft 259 kts 199°
2026-02-17 16:18 39.28519 27.38568 13417 ft 257 kts 199°
2026-02-17 16:18 39.25136 27.37290 13101 ft 249 kts 199°
2026-02-17 16:19 39.23480 27.36669 12932 ft 246 kts 199°
2026-02-17 16:19 39.21847 27.36057 12773 ft 244 kts 199°